www.pogodaiklimat.ru

Погода и климат >> Архив погоды >> Россия >> Калининградская область >> Рыбный Порт


ПОГОДА в Рыбном Порту

  • Прогноз погоды в Рыбном Порту
  • Монитор погоды в Рыбном Порту

АРХИВ ПОГОДЫ в Рыбном Порту

Время (UTC), дата Ветер
(напр.,м/с)
 
Видим.   Явления Облачность Т
(С)
Тd
(С)
f
(%)
Тe
(С)
Тes
(С)
Комфортность P
(гПа)
Po
(гПа)
Тmin
(С)
Tmax
(С)
R
(мм)
R24
(мм)
S
(см)
18 14.05 С 4-7
{9}
н/о н/о +8.5 +4.1 74 +6 +6 1027.9 1027.4 +9.6
21 14.05 СВ 3-5
{7}
н/о н/о +9.0 +5.2 77 +7 +7 1027.8 1027.3
00 15.05 СВ 3-7
{7}
н/о н/о +9.4 +4.2 70 +7 +7 1026.7 1026.3
03 15.05 СВ 4-6
{7}
н/о н/о +9.2 +4.0 70 +6 +6 1026.0 1025.5 +8.5
06 15.05 СВ 6-10
{10}
н/о н/о +10.3 +4.5 67 +7 +7 1024.9 1024.5 +8.5
09 15.05 СВ 7-11
{12}
н/о н/о +11.6 +4.7 63 +9 +9 1024.3 1023.8
12 15.05 С 6-9
{12}
н/о н/о +12.9 +4.2 55 +11 +11 1023.2 1022.7
15 15.05 С 4-6
{10}
н/о н/о +12.7 +6.2 65 +11 +11 1021.9 1021.5
18 15.05 СВ 3-4
{7}
н/о н/о +13.2 +8.9 75 +12 +12 1021.3 1020.9 +13.7
21 15.05 СВ 6-9
{10}
н/о н/о +14.4 +6.8 60 +13 +13 1021.3 1020.8
00 16.05 СВ 3-5
{10}
н/о н/о +12.4 +6.6 68 +11 +11 1019.9 1019.5
03 16.05 СВ 3-6
{8}
н/о н/о +12.3 +5.6 64 +11 +11 1019.1 1018.6 +12.4
06 16.05 СВ 3-7
{8}
н/о н/о +14.4 +7.2 62 +14 +14 1019.0 1018.5 +12.3
09 16.05 В 3-10
{10}
н/о н/о +17.5 +9.2 58 +18 +18 1018.3 1017.9
12 16.05 В 3-8
{10}
н/о н/о +16.3 +9.1 62 +16 +16 1018.4 1017.9
15 16.05 В 2-8
{10}
н/о н/о +16.8 +10.7 67 +17 +17 1017.8 1017.3
18 16.05 СВ 2-6
{9}
н/о н/о +16.0 +11.4 74 +16 +16 1017.8 1017.4 +18.2
21 16.05 В 3-7
{7}
н/о н/о +15.1 +11.2 78 +14 +14 1017.8 1017.3
00 17.05 СВ 3-6
{7}
н/о н/о +14.1 +12.0 87 +13 +13 1016.6 1016.2
03 17.05 СВ 3-7
{7}
н/о н/о +13.6 +11.8 89 +12 +12 1015.2 1014.8 +13.6
06 17.05 В 3-7
{9}
н/о н/о +13.6 +10.9 84 +12 +12 1014.6 1014.2 +13.3
09 17.05 СВ 2-7
{9}
н/о н/о +13.4 +11.0 85 +13 +13 1014.5 1014.1
12 17.05 С 1-2
{7}
н/о н/о +15.7 +12.8 83 +16 +16 1014.7 1014.2
15 17.05 СВ 1-5
{6}
н/о н/о +19.2 +14.5 74 +22 +22 комфорт 1013.6 1013.2
18 17.05 В 1-3
{7}
н/о н/о +18.6 +14.4 77 +20 +20 1013.6 1013.2 +19.7
21 17.05 штиль 0
{5}
н/о н/о +16.7 +14.1 85 +17 +17 1014.4 1013.9
00 18.05 штиль 0
{3}
н/о н/о +14.8 +13.5 92 +14 +14 1014.3 1013.9
03 18.05 В 1-2
{2}
н/о н/о +13.7 +12.8 94 +14 +14 1014.4 1014.0 +13.6
06 18.05 штиль 0
{3}
н/о н/о +14.0 +13.5 97 +14 +14 1013.9 1013.5 +13.5
09 18.05 СВ 2-6
{5}
н/о н/о +16.8 +15.3 91 +17 +17 1013.7 1013.2
12 18.05 В 1-5
{6}
н/о н/о +19.0 +16.1 83 +21 +21 комфорт 1013.0 1012.5
18 18.05 штиль 0
{4}
н/о н/о +19.6 +15.9 79 +21 +21 комфорт 1011.5 1011.1 +21.8
21 18.05 штиль 0
{5}
н/о н/о +16.6 +14.5 87 +16 +16 1011.5 1011.1
00 19.05 СВ 1-2
{2}
н/о н/о +15.8 +14.4 91 +16 +16 1011.3 1010.9
03 19.05 В 1-2
{3}
н/о н/о +16.1 +14.6 91 +17 +17 1011.0 1010.6 +15.7
06 19.05 СВ 1-3
{3}
н/о н/о +16.9 +14.8 87 +18 +18 1011.1 1010.7 +15.7
09 19.05 СВ 1-3
{4}
н/о н/о +20.3 +15.7 75 +24 +24 комфорт 1010.8 1010.3
12 19.05 В 2-5
{5}
н/о н/о +23.3 +16.0 64 +28 +28 душно 1010.0 1009.6
15 19.05 Ю 1-5
{7}
н/о н/о +23.4 +12.0 49 +26 +26 жарко 1009.3 1008.9
18 19.05 штиль 0
{7}
н/о н/о +21.2 +14.1 64 +24 +24 комфорт 1009.3 1008.9 +24.3
21 19.05 штиль 0
{4}
н/о н/о +18.4 +12.5 68 +19 +19 1009.5 1009.1
00 20.05 штиль 0
{3}
н/о н/о +16.4 +12.8 79 +16 +16 1009.4 1009.0
03 20.05 СВ 1-2
{3}
н/о н/о +15.2 +12.9 86 +16 +16 1009.4 1009.0 +15.2
06 20.05 В 1-3
{4}
н/о н/о +18.9 +14.4 75 +21 +21 комфорт 1008.4 1008.0 +15.2
09 20.05 СВ 2-6
{6}
н/о н/о +23.3 +15.1 60 +27 +27 душно 1007.7 1007.3
12 20.05 ЮЗ 1-5
{7}
н/о н/о +27.1 +14.0 45 +29 +29 жарко 1006.7 1006.3
15 20.05 ЮЗ 1-5
{7}
н/о н/о +27.8 +14.7 45 +30 +30 жарко 1005.6 1005.2
18 20.05 штиль 0
{11}
н/о н/о +19.8 +16.3 80 +22 +22 комфорт 1006.8 1006.4 +27.8
21 20.05 СВ 1-2
{6}
н/о н/о +17.8 +14.8 83 +19 +19 1007.1 1006.7

 

Местоположение метеостанции Рыбный Порт (Калининградская область, Россия): широта 54.70 долгота 20.45 высота над уровнем моря 4 м.

В архиве по умолчанию представлена погода в Рыбном Порту за последнюю неделю. Архивные данные за месяц целиком и за предыдущие месяцы, начиная с января 2011 года, Вы можете получить, выбрав интересующий диапазон дат из раскрывающегося списка и нажав кнопку "Ввод!".


*Определитесь, кто Вы:
робот инопланетянин человек

Внимание! Время в таблицах - всемирное. Для получения местного времени необходимо прибавить поправку, которая равна 2 ч.

Смотрите также архив погоды в соседних городах и на ближайших метеорологических станциях:

Погода в Калининграде (Калининградская область, Россия) (11 км)
Погода в Пионерском (Калининградская область, Россия) (32 км)
Погода в Балтийске (Калининградская область, Россия) (37 км)
Погода в Мамоново (Калининградская область, Россия) (42 км)
Погода в Рыбачем (Калининградская область, Россия) (57 км)
Погода в Железнодорожном (Калининградская область, Россия) (66 км)
Погода в Ниде (Литва) (78 км)
Погода в Черняховске (Калининградская область, Россия) (87 км)
Погода в Эльблонге (Польша) (88 км)
Погода в Кентшине (Польша) (92 км)

Пояснения к столбцам:

Ветер - указаны скорость ветра в м/с - средняя за 10 мин, порывы в срок и между сроками (в фигурных скобках) и направление, откуда дует ветер: С - северный, СВ - северо-восточный, В - восточный, ЮВ - юго-восточный, Ю - южный, ЮЗ - юго-западный, З - западный, СЗ - северо-западный.
Видимость - горизонтальная дальность видимости в метрах или километрах. При видимости от 1 до 10 км при отсутствии осадков обычно наблюдается дымка, при ухудшении видимости до 1 км и менее - туман. В сухую погоду видимость может ухудшаться дымом, пылью или мглою.
Явления - указаны атмосферные явления, наблюдавшиеся в срок или в последний час перед сроком; фигурными скобками обозначены явления, наблюдавшиеся между сроками (за 1-3 часа до срока); квадратными скобками обозначены град или гололедные отложения с указанием их диаметра в мм.
Облачность - указаны через наклонную черту общая и нижняя облачность в баллах и высота нижней границы облаков в метрах; квадратными скобками обозначены формы облаков: Ci - перистые, Cs - перисто-слоистые, Cc - перисто-кучевые, Ac - высококучевые, As - высокослоистые, Sc - слоисто-кучевые, Ns - слоисто-дождевые, Cu - кучевые, Cb - кучево-дождевые. Подробнее классификацию облаков см. в Атласе облаков (PDF).
T - Температура воздуха - температура, измеренная на высоте 2 м над землей.
Td - Температура точки росы - температура, при понижении до которой содержащийся в воздухе водяной пар достигнет насыщения.
f - Относительная влажность воздуха - влажноcть воздуха, измеренная на высоте 2 м над землей.
Te - Эффективная температура - температура, которую ощущает одетый по сезону человек в тени. Характеристика душности погоды. При расчете учитывается влияние влажности воздуха и скорости ветра на теплоощущения человека.
Tes - Эффективная температура на солнце - температура, которую ощущает человек, с поправкой на солнечный нагрев. Характеристика знойности погоды. Зависит от высоты солнца над горизонтом, облачности и скорости ветра. Ночью, в пасмурную погоду, а также при ветре 12 м/с и более поправка равна нулю.
P - Атмосферное давление - приведенное к уровню моря атмосферное давление.
Po - Атмосферное давление - измеренное на уровне метеостанции атмосферное давление.
Tmin - Минимальная температура - минимум температуры воздуха на высоте 2 м над землей.
Tmax - Максимальная температура - максимум температуры воздуха на высоте 2 м над землей.
R - Количество осадков - Количество выпавших осадков за период времени, мм. При наведении курсора мыши на число - период времени, за который выпало указанное количество осадков.
R24 - Количество осадков - Количество выпавших осадков за 24 часа, мм.
S - Снежный покров - Высота снежного покрова, см. При наведении курсора мыши на число - состояние снежного покрова и степень покрытия местности в баллах.